Location: Strawberry
(45.6646°N, 111.9596°W)
Time: 20:53:20
(UTC+00:00)

Courier 1B - Pass Details

Date: 06 October 2022
Orbit: 962 x 1209 km, 28.3° (Epoch: 29 November)

Event Time Altitude Azimuth Distance (km) Brightness Sun altitude
Rises 19:20:17 0° 209° (SSW) 4,086 11.5 39.0°
Reaches altitude 10° 19:25:19 10° 182° (S) 3,093 11.4 39.0°
Maximum altitude 19:28:07 12° 160° (SSE) 2,897 11.1 38.9°
Drops below altitude 10° 19:30:54 10° 139° (SE) 3,044 10.8 38.9°
Sets 19:35:44 0° 111° (ESE) 3,949 10.8 38.8°
